CW5619 Weather Reports


time (UTC)temp
F
wind
direction
speed
knots
gust
knots
rain 1hr
in
rain 24hr
in
rain mn
in
humidity
%
barometer
mb
20260904112403 80 114 0.9 2.6 0.00 0.10 0.00 66 1013.6
20260904111904 80 107 1.7 2.6 0.00 0.10 0.00 66 1013.6
20260904111404 80 107 1.7 5.2 0.00 0.10 0.00 66 1013.7
20260904110903 80 113 1.7 5.2 0.00 0.10 0.00 66 1013.6
20260904105903 80 104 1.7 6.1 0.00 0.10 0.00 66 1013.6
20260904105404 80 117 1.7 6.1 0.00 0.10 0.00 66 1013.6
20260904104903 80 115 1.7 6.1 0.00 0.10 0.00 66 1013.5
20260904104403 80 108 2.6 6.1 0.00 0.10 0.00 66 1013.5
20260904103904 80 101 2.6 6.1 0.00 0.10 0.00 66 1013.5
20260904103404 80 112 1.7 6.1 0.00 0.10 0.00 66 1013.6
20260904102904 80 116 1.7 5.2 0.00 0.10 0.00 66 1013.6
20260904102404 80 99 1.7 5.2 0.00 0.10 0.00 66 1013.6
20260904101904 80 108 1.7 6.1 0.00 0.10 0.00 66 1013.7
20260904101404 80 118 1.7 6.1 0.00 0.10 0.00 66 1013.7
20260904100903 80 121 1.7 5.2 0.00 0.10 0.00 66 1013.6
20260904100403 80 87 1.7 5.2 0.00 0.10 0.00 66 1013.5
20260904095903 80 125 0.9 6.1 0.00 0.10 0.00 66 1013.5
20260904095404 80 103 1.7 6.1 0.00 0.10 0.00 66 1013.4
20260904094904 80 112 1.7 6.1 0.00 0.10 0.00 66 1013.4
20260904093904 80 112 1.7 7.0 0.00 0.10 0.00 66 1013.3
20260904093403 80 110 1.7 6.1 0.00 0.10 0.00 66 1013.3
20260904091904 80 122 2.6 7.0 0.00 0.10 0.00 66 1013.1
20260904091404 80 125 1.7 2.6 0.00 0.10 0.00 67 1013.1
20260904090404 80 121 1.7 5.2 0.00 0.10 0.00 67 1013.3
20260904085903 80 124 1.7 5.2 0.00 0.10 0.00 67 1013.3
20260904085403 80 116 1.7 2.6 0.00 0.10 0.00 67 1013.3
20260904084904 80 141 1.7 2.6 0.00 0.10 0.00 67 1013.4
20260904083904 80 107 1.7 2.6 0.00 0.10 0.00 67 1013.4
20260904083404 80 122 0.9 2.6 0.00 0.10 0.00 67 1013.4
20260904082903 80 133 0.9 2.6 0.00 0.10 0.00 68 1013.4
20260904082404 80 111 0.9 2.6 0.00 0.10 0.00 68 1013.5
20260904081904 80 116 0.9 4.3 0.00 0.10 0.00 68 1013.5
20260904081403 80 101 0.9 4.3 0.00 0.10 0.00 68 1013.5
20260904080904 80 111 1.7 2.6 0.00 0.10 0.00 68 1013.5
20260904080403 80 117 0.9 2.6 0.00 0.10 0.00 68 1013.6
20260904075904 80 175 0.9 6.1 0.00 0.10 0.00 67 1013.6
20260904075403 80 115 0.0 6.1 0.00 0.10 0.00 67 1013.6
20260904074904 80 108 1.7 6.1 0.00 0.10 0.00 67 1013.5
20260904074403 80 116 0.9 2.6 0.00 0.10 0.00 66 1013.6
20260904073904 80 121 1.7 2.6 0.00 0.10 0.00 66 1013.5
20260904073403 80 96 0.9 2.6 0.00 0.10 0.00 66 1013.6
20260904072904 80 134 0.9 4.3 0.00 0.10 0.00 66 1013.6
20260904072403 80 98 1.7 4.3 0.00 0.10 0.00 66 1013.6
20260904071904 80 114 0.9 4.3 0.00 0.10 0.00 66 1013.5
20260904071404 80 103 1.7 5.2 0.00 0.10 0.00 66 1013.6
20260904070903 80 145 0.9 5.2 0.00 0.10 0.00 66 1013.6
20260904070404 80 142 0.9 5.2 0.00 0.10 0.00 66 1013.5
20260904065403 80 90 1.7 5.2 0.00 0.10 0.10 65 1013.6
20260904064903 80 95 0.9 5.2 0.00 0.10 0.10 66 1013.6
20260904064404 80 165 1.7 4.3 0.00 0.10 0.10 66 1013.6
20260904063904 80 153 1.7 2.6 0.00 0.10 0.10 66 1013.6
20260904063404 80 101 0.9 2.6 0.00 0.10 0.10 67 1013.6
20260904062904 80 119 0.9 2.6 0.00 0.10 0.10 67 1013.5
20260904062404 80 158 0.9 1.7 0.00 0.10 0.10 67 1013.6
20260904061904 80 148 0.0 2.6 0.00 0.10 0.10 67 1013.6
20260904061403 80 114 0.9 2.6 0.00 0.10 0.10 67 1013.6
20260904060903 80 122 0.9 2.6 0.00 0.10 0.10 68 1013.6
20260904055904 80 119 0.0 2.6 0.00 0.10 0.10 67 1013.6
20260904055404 81 133 0.0 5.2 0.00 0.10 0.10 67 1013.5
20260904054903 81 140 0.9 5.2 0.00 0.10 0.10 67 1013.5
20260904054404 80 102 1.7 5.2 0.00 0.10 0.10 66 1013.4
20260904053904 80 143 0.0 2.6 0.00 0.10 0.10 68 1013.4
20260904053404 80 132 0.9 2.6 0.00 0.10 0.10 69 1013.4
20260904052903 80 101 0.9 2.6 0.00 0.10 0.10 71 1013.4
20260904051403 79 140 0.0 2.6 0.05 0.10 0.10 74 1013.3
20260904050903 79 118 0.9 6.1 0.07 0.10 0.10 74 1013.3
20260904050404 79 116 0.9 6.1 0.08 0.10 0.10 75 1013.3
20260904045904 79 132 1.7 5.2 0.08 0.10 0.10 75 1013.4
20260904044903 78 115 1.7 6.1 0.10 0.10 0.10 76 1013.5
20260904044404 78 113 1.7 6.1 0.10 0.10 0.10 76 1013.4
20260904043904 78 104 0.9 7.0 0.10 0.10 0.10 77 1013.4
20260904043403 78 83 0.9 7.0 0.10 0.10 0.10 77 1013.5
20260904042903 77 108 2.6 8.7 0.10 0.10 0.10 77 1013.5
20260904042403 77 101 3.5 8.7 0.10 0.10 0.10 76 1013.5
20260904041903 78 111 6.1 8.7 0.09 0.09 0.09 76 1013.7
20260904040903 79 112 2.6 7.8 0.03 0.03 0.03 72 1013.8
20260904040403 81 116 2.6 7.0 0.02 0.02 0.02 69 1013.8
20260904035904 83 213 1.7 6.1 0.02 0.02 0.02 66 1013.9
20260904035404 85 126 1.7 7.8 0.00 0.00 0.00 58 1013.6
20260904034903 85 103 1.7 7.8 0.00 0.00 0.00 55 1013.3
20260904034404 85 74 1.7 7.8 0.00 0.00 0.00 55 1013.2
20260904033904 85 104 2.6 7.8 0.00 0.00 0.00 55 1013.1
20260904033404 85 161 0.9 7.0 0.00 0.00 0.00 54 1013.0
20260904032903 86 134 2.6 7.8 0.00 0.00 0.00 54 1013.1
20260904032404 86 104 1.7 7.8 0.00 0.00 0.00 54 1013.0
20260904031905 86 91 2.6 7.0 0.00 0.00 0.00 54 1012.9
20260904031404 86 102 2.6 7.8 0.00 0.00 0.00 54 1012.7
20260904030904 86 143 2.6 10.4 0.00 0.00 0.00 54 1012.6
20260904030404 86 136 4.3 10.4 0.00 0.00 0.00 53 1012.6
20260904025904 86 143 2.6 8.7 0.00 0.00 0.00 53 1012.5
20260904025404 86 96 4.3 8.7 0.00 0.00 0.00 53 1012.3
20260904024403 86 115 2.6 7.0 0.00 0.00 0.00 53 1012.2
20260904023904 86 119 2.6 7.8 0.00 0.00 0.00 52 1012.1
20260904023403 87 124 4.3 7.8 0.00 0.00 0.00 52 1012.0
20260904022903 87 132 2.6 7.0 0.00 0.00 0.00 51 1012.0
20260904022402 87 110 1.7 7.8 0.00 0.00 0.00 51 1012.0
20260904021403 88 116 2.6 7.8 0.00 0.00 0.00 49 1012.0
20260904020903 88 99 2.6 7.8 0.00 0.00 0.00 48 1011.9
20260904020402 88 120 4.3 7.0 0.00 0.00 0.00 47 1011.9
20260904015903 88 106 1.7 5.2 0.00 0.00 0.00 46 1012.0
20260904015403 89 91 1.7 8.7 0.00 0.00 0.00 46 1011.8
20260904014902 90 127 2.6 8.7 0.00 0.00 0.00 44 1011.8
20260904014403 90 106 1.7 2.6 0.00 0.00 0.00 44 1011.6
20260904013902 90 160 1.7 5.2 0.00 0.00 0.00 44 1011.6
20260904013403 90 123 0.9 5.2 0.00 0.00 0.00 44 1011.5
20260904012902 90 132 1.7 7.0 0.00 0.00 0.00 45 1011.6
20260904012402 90 101 2.6 10.4 0.00 0.00 0.00 46 1011.5
20260904011903 90 95 1.7 10.4 0.00 0.00 0.00 46 1011.4
20260904011402 90 114 2.6 7.0 0.00 0.00 0.00 46 1011.3
20260904010902 90 110 2.6 7.0 0.00 0.00 0.00 46 1011.2
20260904010403 90 121 1.7 7.8 0.00 0.00 0.00 47 1011.2
20260904005902 90 109 1.7 7.8 0.00 0.00 0.00 47 1011.4
20260904005402 90 122 1.7 6.1 0.00 0.00 0.00 46 1011.2
20260904004902 90 100 1.7 6.1 0.00 0.00 0.00 47 1011.4
20260904004402 90 92 1.7 6.1 0.00 0.00 0.00 46 1011.5
20260904003403 90 109 2.6 7.8 0.00 0.00 0.00 46 1011.4
20260904002902 91 130 2.6 7.8 0.00 0.00 0.00 47 1011.5
20260904002402 92 87 2.6 7.0 0.00 0.00 0.00 45 1011.2
20260904001902 92 105 3.5 7.0 0.00 0.00 0.00 43 1011.0
20260904001402 93 82 1.7 2.6 0.00 0.00 0.00 41 1011.3
20260904000403 95 211 0.0 5.2 0.00 0.00 0.00 36 1011.2
20260903235902 95 277 0.9 2.6 0.00 0.00 0.00 37 1011.2
20260903235403 95 247 1.7 5.2 0.00 0.00 0.00 36 1011.2
20260903234902 96 92 0.9 5.2 0.00 0.00 0.00 36 1011.4
20260903234402 96 226 1.7 5.2 0.00 0.00 0.00 36 1011.4
20260903233902 96 186 1.7 5.2 0.00 0.00 0.00 36 1011.4
20260903233403 95 56 0.9 6.1 0.00 0.00 0.00 36 1011.4
20260903231903 96 197 0.9 6.1 0.00 0.00 0.00 37 1011.5
20260903231402 96 265 3.5 6.1 0.00 0.00 0.00 36 1011.5
20260903230403 95 9 1.7 4.3 0.00 0.00 0.00 38 1011.5
20260903225902 96 217 1.7 7.0 0.00 0.00 0.00 38 1011.6
20260903225403 96 319 0.9 7.0 0.00 0.00 0.00 37 1011.7
20260903224902 96 172 1.7 6.1 0.00 0.00 0.00 38 1011.7
20260903223903 96 207 1.7 5.2 0.00 0.00 0.00 38 1011.6
20260903223402 96 304 1.7 7.0 0.00 0.00 0.00 39 1011.6
20260903222903 96 222 2.6 10.4 0.00 0.00 0.00 39 1011.7
20260903222402 96 231 5.2 10.4 0.00 0.00 0.00 38 1011.8
20260903221403 96 216 2.6 7.0 0.00 0.00 0.00 38 1011.9
20260903220902 95 231 3.5 7.8 0.00 0.00 0.00 39 1011.9
20260903220402 94 229 1.7 7.8 0.00 0.00 0.00 40 1012.1
20260903215903 95 232 2.6 7.8 0.00 0.00 0.00 40 1012.1
20260903215402 96 228 1.7 6.1 0.00 0.00 0.00 38 1012.1
20260903214902 95 218 1.7 6.1 0.00 0.00 0.00 39 1012.2
20260903214402 95 209 3.5 6.1 0.00 0.00 0.00 39 1012.2
20260903213403 97 5 1.7 5.2 0.00 0.00 0.00 38 1012.2
20260903212903 96 179 1.7 7.0 0.00 0.00 0.00 38 1012.3
20260903212403 96 172 1.7 7.0 0.00 0.00 0.00 39 1012.3
20260903211902 96 10 2.6 7.0 0.00 0.00 0.00 39 1012.4
20260903211403 96 69 0.9 4.3 0.00 0.00 0.00 39 1012.5
20260903210403 95 51 0.9 5.2 0.00 0.00 0.00 40 1012.6
20260903205402 94 303 0.9 7.0 0.00 0.00 0.00 40 1012.8
20260903204902 93 98 0.9 4.3 0.00 0.00 0.00 41 1012.8
20260903204402 94 304 1.7 4.3 0.00 0.00 0.00 41 1012.9
20260903203903 92 110 0.9 6.1 0.00 0.00 0.00 42 1013.1
20260903203403 93 217 2.6 6.1 0.00 0.00 0.00 41 1013.1
20260903202903 93 193 1.7 6.1 0.00 0.00 0.00 40 1013.1
20260903202403 95 230 3.5 5.2 0.00 0.00 0.00 39 1013.2
20260903201402 94 9 1.7 5.2 0.00 0.00 0.00 39 1013.5
20260903200902 95 203 1.7 5.2 0.00 0.00 0.00 40 1013.5
20260903195903 94 222 1.7 5.2 0.00 0.00 0.00 41 1013.7
20260903195403 94 316 1.7 6.1 0.00 0.00 0.00 41 1013.8
20260903194902 94 240 2.6 7.8 0.00 0.00 0.00 41 1013.8
20260903194402 94 205 2.6 7.8 0.00 0.00 0.00 41 1013.8
20260903193903 94 341 1.7 7.0 0.00 0.00 0.00 40 1013.9
20260903192902 94 26 1.7 2.6 0.00 0.00 0.00 41 1014.1
20260903192402 94 346 1.7 2.6 0.00 0.00 0.00 41 1014.2
20260903191903 94 325 0.9 2.6 0.00 0.00 0.00 41 1014.3
20260903191403 93 84 1.7 2.6 0.00 0.00 0.00 42 1014.3
20260903190902 93 62 0.9 4.3 0.00 0.00 0.00 43 1014.4
20260903190402 91 97 0.9 5.2 0.00 0.00 0.00 44 1014.5
20260903185902 91 183 1.7 5.2 0.00 0.00 0.00 43 1014.6
20260903184903 90 200 1.7 2.6 0.00 0.00 0.00 45 1014.8
20260903184403 91 196 1.7 4.3 0.00 0.00 0.00 45 1014.8
20260903183903 90 127 1.7 4.3 0.00 0.00 0.00 46 1014.9
20260903183402 90 67 0.9 2.6 0.00 0.00 0.00 46 1015.0
20260903182902 91 80 1.7 2.6 0.00 0.00 0.00 45 1015.2
20260903181903 90 230 1.7 2.6 0.00 0.00 0.00 46 1015.3
20260903181403 89 42 1.7 2.6 0.00 0.00 0.00 49 1015.4
20260903180902 88 57 1.7 5.2 0.00 0.00 0.00 50 1015.4
20260903175402 89 184 0.9 2.6 0.00 0.00 0.00 48 1015.7
20260903174903 89 68 0.9 5.2 0.00 0.00 0.00 49 1015.8
20260903174403 88 34 1.7 6.1 0.00 0.00 0.00 50 1015.8
20260903173402 88 78 2.6 6.1 0.00 0.00 0.00 51 1016.0
20260903171902 85 197 0.9 2.6 0.00 0.00 0.00 54 1015.8
20260903171403 85 152 0.9 4.3 0.00 0.00 0.00 55 1015.7
20260903170902 84 232 1.7 4.3 0.00 0.00 0.00 55 1015.7
20260903170403 84 212 1.7 2.6 0.00 0.00 0.00 55 1015.7
20260903165902 84 182 0.9 2.6 0.00 0.00 0.00 55 1015.8
20260903164903 84 204 0.0 5.2 0.00 0.00 0.00 57 1015.7
20260903164403 83 226 0.9 5.2 0.00 0.00 0.00 57 1015.8
20260903163902 83 214 1.7 4.3 0.00 0.00 0.00 57 1015.7
20260903163402 83 223 1.7 4.3 0.00 0.00 0.00 57 1015.7
20260903162403 83 230 2.6 7.0 0.00 0.00 0.00 58 1015.7
20260903161403 83 223 2.6 4.3 0.00 0.00 0.00 60 1015.8
20260903160903 83 230 2.6 2.6 0.00 0.00 0.00 62 1015.8
20260903160402 83 228 1.7 2.6 0.00 0.00 0.00 61 1015.8
20260903155902 84 214 0.9 2.6 0.00 0.00 0.00 59 1015.9
20260903155403 84 11 0.9 2.6 0.00 0.00 0.00 55 1015.8
20260903154902 84 57 0.9 2.6 0.00 0.00 0.00 57 1015.8
20260903154402 84 113 0.9 5.2 0.00 0.00 0.00 56 1015.8
20260903153903 84 98 1.7 5.2 0.00 0.00 0.00 56 1015.7
20260903153402 83 64 0.9 2.6 0.00 0.00 0.00 58 1015.6
20260903152403 82 99 0.9 2.6 0.00 0.00 0.00 61 1015.7
20260903151402 82 43 0.0 2.6 0.00 0.00 0.00 61 1015.7
20260903150902 81 41 1.7 2.6 0.00 0.00 0.00 60 1015.7
20260903145402 80 66 1.7 6.1 0.00 0.00 0.00 65 1015.6
20260903144903 80 76 1.7 5.2 0.00 0.00 0.00 66 1015.8
20260903144403 80 45 0.9 5.2 0.00 0.00 0.00 66 1015.7
20260903143402 78 43 1.7 2.6 0.00 0.00 0.00 70 1015.6
20260903142904 77 74 0.9 2.6 0.00 0.00 0.00 71 1015.7
20260903141902 77 39 0.9 2.6 0.00 0.00 0.00 73 1015.9
20260903141402 77 349 0.9 4.3 0.00 0.00 0.00 74 1015.9
20260903140902 76 15 0.9 4.3 0.00 0.00 0.00 75 1016.0
20260903140402 76 14 0.9 2.6 0.00 0.00 0.00 76 1016.0
20260903135903 76 341 0.9 2.6 0.00 0.00 0.00 76 1015.9
20260903135403 77 277 0.9 2.6 0.00 0.00 0.00 75 1015.9
20260903134902 77 313 0.9 2.6 0.00 0.00 0.00 74 1016.1
20260903134403 78 284 0.9 5.2 0.00 0.00 0.00 72 1016.0
20260903133902 78 277 0.9 5.2 0.00 0.00 0.00 71 1015.9
20260903132902 79 267 1.7 2.6 0.00 0.00 0.00 67 1015.9
20260903132403 79 237 1.7 5.2 0.00 0.00 0.00 64 1015.8
20260903131903 80 217 0.9 7.0 0.00 0.00 0.00 63 1015.7
20260903131403 80 241 2.6 7.0 0.00 0.00 0.00 62 1015.6
20260903130902 80 232 1.7 2.6 0.00 0.00 0.00 63 1015.4
20260903130403 80 242 0.0 2.6 0.00 0.00 0.00 64 1015.4
20260903125902 81 237 1.7 2.6 0.00 0.00 0.00 62 1015.4
20260903124903 81 226 0.0 2.6 0.00 0.00 0.00 63 1015.3
20260903123902 81 209 0.9 2.6 0.00 0.00 0.00 64 1015.0
20260903123402 81 236 0.0 2.6 0.00 0.00 0.00 63 1015.0
20260903122902 81 211 0.9 5.2 0.00 0.00 0.00 63 1015.0
20260903122402 81 216 1.7 5.2 0.00 0.00 0.00 63 1014.9
20260903121903 81 206 1.7 5.2 0.00 0.00 0.00 63 1014.9
20260903120903 81 235 0.9 2.6 0.00 0.00 0.00 62 1014.8
20260903114403 81 121 0.9 2.6 0.00 0.00 0.00 62 1014.4
20260903113902 81 132 0.9 2.6 0.00 0.00 0.00 62 1014.4
20260903113402 81 89 0.9 4.3 0.00 0.00 0.00 62 1014.4